Clarksburg, WV

2:25 PM EST on November 21, 2019 (GMT -0500)
Benedum

Weather History for KCKB - May, 2019

Change the Weather History Date:

Thursday, May 9, 2019

  Actual Average Record
Temperature  
Mean Temperature 75 °F -  
Max Temperature 86 °F 70 °F 92 °F (1936)
Min Temperature 64 °F 44 °F 27 °F (1947)
Cooling Degree Days 10    
Month to date cooling degree days 39  
Year to date cooling degree days 64  
Growing Degree Days 24 (Base 50)    
Moisture  
Dew Point 58 °F    
Average Humidity 61    
Maximum Humidity 81    
Minimum Humidity 40    
Precipitation  
Precipitation T in - - ()
Month to date precipitation 0.50  
Year to date precipitation 14.63  
Sea Level Pressure  
Sea Level Pressure 29.96 in    
Wind  
Wind Speed 7 mph (SSE)    
Max Wind Speed 21 mph    
Max Gust Speed 31 mph    
Visibility 10 miles    
Events Rain    
Averages and records for this station are not official NWS values.
T = Trace of Precipitation, MM = Missing Value Source: NWS Daily Summary

Daily Weather History Graph

Daily Weather History Graph

Search for Another Location

Airport or City:

Astronomy

May. 09, 2019 Rise Set
Actual Time 6:13 AM EDT 8:21 PM EDT
Civil Twilight 5:43 AM EDT 8:51 PM EDT
Nautical Twilight 5:07 AM EDT 9:28 PM EDT
Astronomical Twilight 4:28 AM EDT 10:07 PM EDT
Moon 10:07 AM EDT (5/9) 12:19 AM EDT (5/9)
Length of Visible Light 15h 07m
Length of Day
14h 08m
Waxing Crescent, 24% of the Moon is Illuminated
May 9
Waxing Crescent
May 11
First Quarter
May 18
Full
May 26
Last Quarter
Jun 3
New

Hourly Weather History & Observations

Time (EDT) Temp. Heat Index Dew Point Humidity Pressure Visibility Wind Dir Wind Speed Gust Speed Precip Events Conditions
12:53 AM 66.9 °F - 57.0 °F 70% 30.04 in 10.0 mi East 4.6 mph - N/A   Clear
1:53 AM 64.9 °F - 57.0 °F 75% 30.02 in 10.0 mi East 4.6 mph - N/A   Clear
2:53 AM 64.9 °F - 57.0 °F 75% 30.01 in 10.0 mi East 5.8 mph - N/A   Clear
3:53 AM 68.0 °F - 57.9 °F 70% 29.99 in 10.0 mi ESE 6.9 mph - N/A   Clear
4:53 AM 68.0 °F - 57.0 °F 68% 30.00 in 10.0 mi ESE 6.9 mph - N/A   Clear
5:53 AM 68.0 °F - 57.0 °F 68% 30.00 in 10.0 mi ESE 5.8 mph - N/A   Clear
6:53 AM 69.1 °F - 57.0 °F 65% 30.01 in 10.0 mi ESE 4.6 mph - N/A   Clear
7:53 AM 71.1 °F - 57.9 °F 63% 30.00 in 10.0 mi SSE 6.9 mph - N/A   Clear
8:53 AM 73.9 °F - 59.0 °F 59% 29.99 in 10.0 mi South 9.2 mph 19.6 mph N/A   Clear
9:53 AM 78.1 °F - 60.1 °F 54% 29.97 in 10.0 mi South 8.1 mph - N/A   Clear
10:53 AM 79.0 °F - 59.0 °F 50% 29.97 in 10.0 mi South 9.2 mph 19.6 mph N/A   Mostly Cloudy
11:53 AM 81.0 °F 81.0 °F 57.0 °F 44% 29.97 in 10.0 mi SSW 19.6 mph 26.5 mph N/A   Mostly Cloudy
12:53 PM 82.9 °F 82.8 °F 59.0 °F 44% 29.96 in 10.0 mi SSW 11.5 mph 21.9 mph N/A   Partly Cloudy
1:53 PM 84.0 °F 83.3 °F 57.0 °F 40% 29.94 in 10.0 mi South 15.0 mph 23.0 mph N/A   Scattered Clouds
2:53 PM 84.9 °F 83.9 °F 57.0 °F 38% 29.93 in 10.0 mi SW 13.8 mph - N/A   Clear
3:53 PM 82.9 °F 82.4 °F 57.0 °F 41% 29.91 in 10.0 mi SSW 11.5 mph 21.9 mph N/A   Partly Cloudy
4:21 PM 80.1 °F 80.2 °F 55.9 °F 43% 29.95 in 10.0 mi West 9.2 mph - N/A   Mostly Cloudy
4:53 PM 80.1 °F 80.2 °F 55.9 °F 43% 29.91 in 10.0 mi West 4.6 mph - N/A   Mostly Cloudy
5:53 PM 77.0 °F - 60.1 °F 56% 29.91 in 10.0 mi West 4.6 mph - N/A   Overcast
6:53 PM 73.9 °F - 61.0 °F 64% 29.91 in 10.0 mi SSW 5.8 mph - 0.00 in   Overcast
7:53 PM 73.0 °F - 61.0 °F 66% 29.93 in 10.0 mi Calm Calm - N/A   Overcast
8:53 PM 70.0 °F - 60.1 °F 71% 29.92 in 6.0 mi Calm Calm - N/A   Haze
9:53 PM 70.0 °F - 61.0 °F 73% 29.93 in 10.0 mi Calm Calm - 0.00 in Rain Light Rain
10:53 PM 68.0 °F - 62.1 °F 81% 29.93 in 10.0 mi Calm Calm - 0.00 in   Overcast
11:53 PM 68.0 °F - 62.1 °F 81% 29.93 in 10.0 mi NNE 3.5 mph - N/A   Overcast